Temperature
23 22 22 23 29 31 29 30 30 30 29 28 27 27 28 27 27 25 22 21 20 20 19 19 19 19 19 19 19 19 19 19 19 19 19 18 18 18 18 18 18 18 18 18 18 18 18 18 18
23 23 23 28 31 30 29 30 30 29 28 27 27 27 27 25 23 22 21 20 20 20 19 19 19 19 19 19 19 19 19 19 19 19 18 18 18 18 18 18 18 18 18 18 18 18 18 18 18
23 23 27 32 31 30 30 30 30 29 28 28 27 27 26 24 22 21 21 20 20 20 19 19 19 19 19 19 19 19 19 19 19 19 18 18 18 18 18 18 18 18 18 18 18 18 18 18 18
23 26 29 32 31 31 31 31 30 30 28 28 28 27 24 22 22 22 21 21 20 20 19 19 19 19 19 19 19 19 19 19 19 18 18 18 18 18 18 18 18 18 18 18 18 18 18 18 17
25 30 32 32 31 31 31 30 30 30 29 28 28 27 24 21 21 21 21 21 21 20 20 19 19 19 19 19 19 19 19 19 18 18 18 18 18 18 18 18 18 18 18 18 18 18 18 17 17
29 32 32 31 31 31 32 30 30 30 29 28 27 27 23 21 21 21 21 21 21 20 20 19 19 19 19 19 19 19 19 18 18 18 18 18 18 18 18 18 18 18 18 18 18 18 18 17 17
31 33 32 32 31 31 31 31 31 31 30 28 27 27 23 21 21 21 21 21 21 20 20 19 18 19 19 19 19 19 18 18 18 18 18 18 18 18 18 18 18 17 17 17 17 17 17 17 17
29 33 32 32 31 31 32 31 30 30 29 27 27 27 24 21 21 21 20 20 20 20 20 19 19 18 18 18 19 19 18 18 18 18 18 18 18 18 18 17 18 18 17 17 17 17 17 17 17
29 33 32 32 31 32 32 31 30 29 28 27 27 27 25 22 20 20 20 20 19 19 19 19 19 18 18 18 18 18 18 18 18 18 18 18 17 17 17 17 17 17 17 17 17 17 17 17 17
31 32 32 32 32 32 32 31 30 30 30 28 26 24 22 21 21 21 21 20 20 19 19 19 19 18 19 18 18 18 18 18 17 17 17 17 17 17 17 17 18 17 17 17 17 17 17 17 17
32 32 32 32 32 31 32 31 31 31 31 30 27 24 22 21 21 21 21 21 20 20 19 19 19 18 19 18 18 18 18 17 17 17 17 17 17 17 17 17 17 17 17 17 17 17 17 17 17
32 32 31 32 31 31 32 31 31 31 31 29 27 24 23 22 22 22 22 21 20 20 19 19 18 18 18 18 18 18 18 18 18 17 17 17 17 17 17 17 17 17 17 17 17 17 17 17 17
32 32 31 32 32 31 31 32 31 31 29 28 26 24 23 23 22 22 21 21 20 20 19 19 19 18 18 18 18 18 18 18 18 17 17 17 17 17 17 17 17 17 17 17 17 17 17 17 17
31 31 32 32 32 31 32 32 31 30 28 27 26 25 24 23 23 22 21 20 20 19 19 19 19 19 19 19 18 18 18 18 18 17 17 17 17 17 17 17 17 17 17 17 17 17 17 17 17
30 32 33 32 32 32 32 32 31 30 28 27 26 25 24 23 22 22 21 21 20 20 20 20 20 19 19 18 18 18 18 18 18 17 17 17 17 17 17 17 17 17 17 17 17 17 17 17 17
32 32 32 32 32 31 32 32 31 29 28 28 26 25 24 23 22 22 21 21 20 20 20 20 19 19 19 19 18 18 18 18 18 18 17 17 17 17 17 17 17 17 17 17 17 17 17 17 17
32 32 32 32 32 32 32 32 31 29 29 28 27 25 24 22 22 21 21 21 21 20 20 20 19 19 19 18 18 18 18 18 18 18 18 17 17 17 17 17 17 17 17 17 17 17 17 17 17
31 31 31 31 32 32 32 32 32 30 29 29 27 26 24 23 22 21 21 21 20 20 20 20 20 19 19 18 18 18 18 18 17 18 18 17 17 17 17 17 17 17 17 17 17 17 17 17 17
31 31 31 31 31 31 32 32 31 30 29 29 27 26 25 24 23 21 21 20 20 20 20 20 19 19 19 19 18 18 18 18 18 18 18 17 17 17 17 17 17 17 17 17 17 17 17 17 17
30 30 31 31 31 31 31 31 31 30 29 29 28 27 25 24 23 21 20 20 20 20 20 20 20 19 19 19 18 18 18 17 18 18 18 18 17 17 17 17 17 17 17 17 17 17 17 17 17
30 30 31 31 31 31 31 31 31 31 29 28 28 27 26 25 23 22 21 20 20 20 20 20 19 19 19 19 18 18 18 18 18 18 18 18 17 17 17 17 17 17 17 17 17 17 17 17 17
30 31 30 30 30 31 31 31 31 31 30 29 28 27 26 24 23 22 21 21 21 20 20 20 20 19 19 19 18 18 18 18 18 18 18 17 17 17 17 17 17 17 17 17 17 17 17 17 17
30 30 30 30 30 30 31 30 32 31 31 30 29 27 26 25 24 22 22 21 21 20 20 20 20 19 19 19 18 18 18 18 18 17 17 17 17 17 17 17 17 17 17 17 17 17 17 17 17
30 30 30 30 31 30 30 30 30 32 31 30 29 27 26 25 23 22 21 21 20 20 20 20 19 19 19 19 18 18 18 18 18 17 17 17 17 17 17 17 17 17 17 17 17 17 17 17 17
30 29 29 29 29 30 30 29 31 31 30 30 29 27 26 24 23 22 21 21 20 20 20 20 19 19 19 19 18 18 18 18 18 17 17 17 17 17 17 17 17 17 17 17 17 17 17 17 17
30 30 29 29 29 30 29 30 31 31 29 28 28 27 25 25 24 23 22 21 20 20 20 20 19 19 19 19 18 18 18 17 17 17 17 17 17 17 17 17 17 17 17 17 17 17 17 17 17
30 30 32 30 30 29 30 30 31 30 29 29 28 27 26 25 24 23 22 21 21 20 20 20 19 19 19 18 18 18 18 17 17 17 17 17 17 17 17 17 17 17 17 17 17 17 17 17 16
30 31 30 30 28 28 29 30 30 31 30 29 28 27 26 25 24 23 22 21 21 20 20 19 19 19 19 18 18 18 18 17 17 17 17 17 17 17 17 17 17 17 17 17 17 16 17 16 16
28 29 30 30 30 29 29 30 32 31 30 30 29 27 26 25 24 23 22 21 21 20 20 19 19 19 19 18 18 18 17 17 17 17 17 17 17 17 17 17 17 16 16 16 16 16 16 16 16
30 30 30 29 28 29 29 31 31 31 30 29 28 27 26 25 24 22 22 21 20 20 20 19 19 19 18 18 18 18 17 17 17 17 17 17 17 17 17 16 16 16 16 16 16 16 16 16 16
Wind_Speed
8 6 4 4 2 10 16 13 11 10 8 7 6 4 5 7 5 8 10 16 17 17 17 16 14 14 14 14 14 15 15 14 14 13 13 13 12 12 11 11 11 12 12 12 12 12 13 13 12
3 3 4 3 5 13 15 12 12 11 8 7 6 5 6 7 7 10 13 16 18 17 17 16 16 14 14 14 14 14 14 14 13 13 12 12 11 11 11 11 11 11 12 12 12 12 13 12 12
4 5 3 2 11 13 14 11 10 8 7 5 5 6 6 7 9 10 14 18 17 16 16 17 15 14 14 14 13 13 13 13 12 12 12 11 11 11 11 11 11 11 11 12 12 12 12 12 12
4 4 2 6 14 12 10 8 7 7 7 5 5 7 7 6 6 11 18 18 17 15 16 18 15 14 14 13 13 12 12 12 12 11 11 11 11 10 11 11 11 11 11 11 12 12 12 12 12
5 3 3 10 12 10 7 6 4 5 5 5 5 8 8 6 9 16 18 17 16 15 15 18 15 14 13 13 12 12 12 11 11 11 11 11 11 11 11 11 11 11 11 11 12 12 12 12 12
3 2 5 10 11 7 7 5 4 5 6 6 6 8 7 7 13 16 17 15 15 14 15 17 15 13 12 12 12 12 11 11 11 11 10 11 11 11 11 11 11 11 11 11 11 11 12 11 11
3 2 7 8 8 8 6 4 4 4 4 5 5 7 8 10 14 15 15 14 14 13 14 15 16 14 12 11 11 11 11 10 10 10 10 11 11 11 11 11 11 11 11 11 11 11 11 11 11
4 1 6 7 7 7 5 3 3 3 4 5 4 5 9 14 15 15 14 13 12 11 12 13 13 13 13 13 11 11 10 10 10 10 10 11 11 11 10 11 11 10 11 11 11 11 11 11 10
4 1 6 6 5 5 3 2 2 2 4 4 2 3 12 20 18 16 14 13 12 11 10 11 11 11 11 11 13 12 11 10 10 11 11 9 9 10 10 12 11 10 10 10 10 10 10 10 11
3 2 6 4 4 4 3 2 1 3 4 5 6 9 17 20 19 18 17 16 15 14 12 9 9 10 10 9 11 9 10 10 8 8 9 7 7 6 9 12 10 10 10 10 10 9 10 8 9
2 3 4 3 5 5 3 1 2 3 1 3 8 15 19 20 18 18 17 16 15 14 12 11 10 9 9 8 8 7 6 8 8 8 7 6 6 7 8 8 9 9 10 8 10 8 6 5 5
2 3 4 5 5 4 4 2 2 2 2 2 8 18 20 20 18 17 16 15 14 13 13 11 9 8 7 7 7 7 6 6 7 8 7 7 5 5 6 5 6 6 6 5 5 4 4 4 5
3 4 6 6 5 4 3 3 2 1 2 5 12 17 19 18 17 15 14 13 13 13 13 11 9 8 7 6 6 6 6 6 7 7 7 6 6 5 5 4 4 4 5 6 4 4 4 4 5
4 7 6 5 4 2 3 2 2 1 4 8 13 15 16 16 16 15 14 14 13 13 13 12 11 10 8 7 6 5 6 6 6 6 7 6 5 5 5 5 4 3 4 3 3 4 4 4 4
6 8 5 2 3 1 4 4 2 3 6 9 11 12 13 14 14 15 15 14 14 13 13 12 12 11 9 8 7 6 6 7 6 5 6 7 6 5 5 4 4 4 4 4 4 3 3 4 4
7 8 5 1 2 2 6 1 4 4 7 8 10 11 12 12 13 13 13 13 12 12 12 12 11 12 10 8 7 6 6 6 6 6 7 7 6 6 5 5 5 4 4 4 3 4 3 3 3
8 7 4 1 0 3 5 2 3 4 7 8 9 10 11 12 12 12 12 12 12 12 13 13 12 12 11 10 7 6 5 6 7 7 7 7 7 7 7 5 4 5 5 4 5 4 3 3 3
5 5 4 3 1 4 5 3 1 3 6 7 9 9 10 11 12 12 12 12 11 11 12 13 13 12 11 9 7 6 6 6 7 7 6 7 8 9 8 6 6 7 5 4 4 3 3 3 4
4 5 4 2 3 5 4 4 2 3 6 7 8 9 10 10 10 11 11 11 11 11 12 13 14 13 11 9 9 8 8 7 7 7 7 8 9 8 8 6 6 6 5 5 6 5 5 5 4
7 7 5 2 1 4 5 4 3 3 5 5 7 8 9 10 10 11 11 11 12 12 12 13 14 14 13 10 9 7 7 7 7 6 7 9 9 9 9 8 7 7 6 7 7 6 5 5 5
9 8 5 3 3 5 6 7 5 4 4 5 6 7 8 10 11 12 12 11 11 12 13 12 14 14 13 12 9 7 6 5 6 7 7 8 9 10 9 9 8 7 7 7 8 8 8 6 5
9 5 5 5 7 4 4 7 2 3 5 5 6 7 8 10 10 11 11 11 11 11 11 12 12 12 12 12 11 11 9 9 8 7 7 7 9 10 10 10 9 8 7 6 8 8 7 7 6
5 2 4 6 7 8 5 8 3 3 4 3 4 6 8 9 10 10 10 10 10 9 9 10 11 11 11 11 12 11 10 8 7 6 7 7 8 9 10 10 8 8 7 7 8 7 8 7 8
5 5 5 7 8 9 4 6 5 1 2 1 3 5 7 9 10 10 9 9 9 8 9 9 10 11 11 11 11 11 11 9 8 8 7 7 7 8 9 9 8 8 7 7 8 8 9 8 8
10 10 8 8 8 6 2 6 5 2 1 1 2 5 8 9 10 10 10 10 9 9 9 9 10 10 11 11 11 11 11 10 9 8 7 7 6 7 8 8 7 7 7 7 7 7 8 8 8
14 14 9 7 6 4 5 6 2 1 1 2 3 5 8 10 10 10 10 10 9 9 9 9 9 10 10 10 10 9 8 7 6 7 6 6 6 6 6 7 7 7 7 7 6 7 7 7 7
11 13 12 9 8 8 5 4 5 3 4 5 6 7 8 9 10 10 10 9 9 9 9 9 9 9 9 9 8 7 7 7 6 6 6 5 5 5 5 6 7 7 7 7 6 6 7 6 7
10 10 8 10 8 9 7 7 4 3 5 6 7 8 9 10 10 10 9 9 9 8 8 7 7 8 8 8 7 6 6 6 5 5 5 4 4 4 5 5 6 6 6 7 6 6 6 6 6
11 11 10 10 9 8 6 3 1 2 3 5 7 8 10 10 11 10 9 8 8 8 7 7 7 7 6 6 6 5 5 5 5 4 4 4 4 4 4 5 5 5 6 6 5 5 5 5 5
13 14 14 11 9 9 9 4 5 2 3 4 6 8 9 10 10 11 10 9 8 8 7 7 6 6 6 6 5 5 4 4 4 4 4 3 3 4 4 4 4 5 5 5 6 5 4 5 5
Wind_Direction
212 210 230 244 185 76 68 65 67 72 74 76 86 64 57 48 41 89 123 138 138 140 137 140 135 129 124 122 120 119 121 121 120 120 120 120 120 118 115 114 113 113 112 110 110 109 110 110 110
217 217 241 248 69 77 70 64 64 63 80 97 92 79 75 68 67 111 135 140 144 141 141 141 135 132 128 125 123 123 122 122 122 122 121 122 120 119 117 115 113 113 114 114 112 111 111 112 111
225 242 275 73 65 68 71 66 72 82 92 96 89 65 62 78 107 129 139 146 146 140 138 133 140 136 132 128 126 124 122 123 124 124 123 123 122 121 118 115 114 113 116 116 115 112 111 110 110
246 236 232 78 76 67 64 71 83 98 89 82 97 91 83 79 116 133 142 150 145 143 143 136 143 139 136 132 129 127 126 125 125 124 123 122 122 120 118 116 114 114 115 118 119 115 112 110 111
253 267 107 83 75 71 67 68 79 77 78 90 99 103 96 83 117 134 147 151 148 148 142 138 143 140 137 136 133 131 129 127 125 123 122 121 119 117 118 117 115 115 116 119 118 117 116 113 113
264 254 84 81 79 76 77 80 81 76 90 103 112 113 97 119 135 144 150 154 150 148 143 137 143 143 143 139 137 136 132 129 126 125 122 119 117 116 116 116 116 117 117 118 118 117 117 117 115
313 57 82 79 81 76 61 59 50 71 96 111 124 118 124 141 144 149 151 153 153 153 147 148 153 152 149 144 142 138 134 132 129 128 125 121 119 118 117 117 118 119 118 118 119 119 119 119 118
309 198 95 78 67 67 63 58 45 34 81 114 141 137 150 153 151 151 152 155 155 157 154 155 161 155 158 153 147 140 137 136 133 130 128 127 127 126 129 129 121 121 121 120 119 119 120 120 122
277 200 79 60 43 48 47 43 63 97 129 138 128 101 135 146 153 155 156 159 161 165 164 166 158 160 164 155 147 152 146 144 150 142 139 153 145 136 140 115 121 123 123 122 120 121 126 131 132
286 58 61 32 11 1 358 329 158 174 158 150 132 118 134 150 159 165 167 169 170 170 171 169 166 167 169 156 152 163 161 155 163 143 149 144 126 126 120 123 128 127 126 128 124 129 152 167 142
320 17 26 6 353 334 319 293 209 220 172 171 167 154 154 161 168 173 174 176 174 171 173 173 175 176 170 162 163 163 158 153 157 145 144 134 142 138 136 138 141 145 153 142 141 163 149 131 122
299 350 341 334 340 315 309 291 243 254 17 86 158 158 163 169 176 179 177 176 173 173 175 176 173 177 181 174 165 171 169 166 160 150 162 154 153 150 139 153 150 158 144 136 143 137 124 122 134
278 323 324 321 313 310 282 263 264 251 66 120 145 159 169 174 178 180 177 177 177 177 176 175 175 177 179 181 187 176 173 172 163 161 166 170 166 161 152 147 156 162 141 152 155 146 135 142 145
317 306 304 312 326 295 272 245 199 111 126 140 153 166 173 177 177 176 178 182 182 181 179 174 176 182 184 189 193 183 179 177 179 175 170 184 179 165 166 165 168 166 161 146 158 148 161 170 149
283 281 269 294 320 315 271 214 179 122 147 155 162 168 172 178 181 183 183 183 183 183 181 178 177 184 188 196 196 191 189 183 190 183 178 189 193 176 186 174 181 175 167 165 181 172 177 182 171
251 251 241 150 333 299 273 257 98 149 167 165 166 169 175 182 187 186 185 184 183 183 182 182 185 187 188 195 200 198 196 190 196 198 191 196 198 193 204 197 190 180 190 188 182 199 188 186 189
228 237 243 196 340 293 273 303 92 161 184 179 177 176 178 182 189 187 187 185 184 186 185 185 190 190 190 190 199 206 199 205 206 205 204 199 204 203 209 210 191 196 200 203 211 188 210 199 202
224 237 235 255 339 292 268 274 154 179 202 195 188 186 185 186 189 186 186 185 185 188 188 187 189 192 190 189 192 204 208 211 213 212 208 209 209 209 216 211 200 209 205 210 217 205 222 227 223
268 258 253 272 324 293 277 273 253 200 211 205 197 194 192 189 182 181 182 184 185 188 190 191 192 191 190 191 193 200 205 209 213 215 212 216 218 213 220 227 200 215 215 220 215 215 212 222 219
240 247 240 223 313 291 283 271 250 222 219 220 209 200 194 183 176 178 181 184 189 191 194 193 194 193 195 197 199 205 208 211 212 214 211 218 220 220 218 224 223 216 217 221 224 224 236 228 217
232 247 258 278 281 240 271 245 215 203 208 213 212 201 193 187 181 179 182 186 190 194 196 195 196 195 197 197 198 200 200 209 210 211 212 218 220 223 229 224 229 228 228 221 222 223 229 236 228
228 232 257 266 266 254 280 288 217 208 215 208 203 195 189 187 183 178 180 184 191 193 194 195 194 195 197 196 201 202 205 210 213 212 210 215 222 227 228 227 227 229 234 229 229 224 228 235 238
236 205 242 258 260 268 248 279 273 190 242 209 195 193 186 184 181 178 180 183 186 187 187 189 191 193 194 198 203 209 215 218 219 215 213 218 222 228 229 226 224 224 232 234 238 232 231 231 239
199 203 219 241 252 254 256 272 278 266 299 214 169 174 177 175 174 171 173 173 176 177 180 178 184 191 194 197 203 210 216 219 221 219 218 219 220 222 222 224 223 223 227 229 232 233 231 234 240
206 221 225 228 229 246 164 257 277 9 334 266 192 170 169 169 168 166 168 169 172 175 177 180 184 189 191 195 201 209 215 218 221 224 223 226 226 224 220 222 221 223 224 228 229 227 235 232 233
212 225 240 257 255 233 186 251 271 106 225 219 189 164 164 168 166 165 165 166 171 174 176 182 184 187 189 193 198 204 213 219 224 227 226 226 231 233 224 223 222 224 225 229 227 232 231 232 233
209 228 246 258 268 274 252 253 254 199 202 189 173 167 168 167 165 164 165 165 168 170 174 179 179 182 185 190 196 198 208 219 223 225 225 230 228 230 222 223 225 227 228 231 231 233 234 234 235
240 226 220 237 250 258 249 248 257 214 193 177 176 174 167 164 163 160 161 161 162 163 165 169 172 174 179 187 195 194 200 209 213 218 220 227 231 227 221 219 225 226 225 226 228 227 227 231 237
195 208 223 233 247 261 264 251 131 214 194 184 178 173 167 166 163 161 159 158 155 154 156 162 161 161 168 178 184 189 194 195 198 205 212 212 217 215 217 219 222 223 223 222 223 227 229 228 233
211 215 213 224 228 243 270 267 118 179 190 186 176 168 166 164 161 160 158 157 157 156 158 159 158 157 163 167 168 168 172 180 186 193 198 198 201 209 210 210 217 225 224 219 218 223 225 225 227
Height
1509 1509 1509 1510 1503 1501 1508 1506 1503 1505 1508 1512 1514 1514 1514 1516 1519 1530 1534 1535 1537 1540 1541 1543 1545 1547 1548 1550 1551 1552 1553 1554 1555 1556 1557 1558 1559 1560 1561 1561 1562 1563 1564 1564 1565 1566 1567 1568 1568
1512 1511 1512 1507 1499 1511 1514 1507 1507 1509 1513 1515 1516 1517 1517 1522 1527 1530 1533 1536 1539 1542 1544 1545 1546 1548 1550 1552 1553 1554 1555 1556 1557 1558 1559 1560 1561 1561 1562 1563 1564 1564 1565 1566 1567 1568 1569 1569 1570
1512 1512 1512 1501 1503 1511 1514 1508 1510 1513 1515 1516 1518 1520 1522 1527 1531 1533 1535 1538 1542 1544 1546 1546 1548 1550 1552 1553 1555 1556 1557 1558 1559 1559 1560 1561 1562 1563 1564 1565 1565 1566 1567 1567 1568 1569 1570 1571 1572
1515 1514 1509 1501 1508 1508 1508 1509 1511 1513 1516 1518 1518 1522 1527 1531 1533 1535 1537 1540 1543 1546 1548 1548 1550 1552 1554 1555 1556 1557 1558 1559 1560 1561 1562 1563 1564 1565 1565 1566 1567 1568 1568 1569 1570 1571 1572 1573 1574
1516 1511 1502 1505 1508 1508 1509 1511 1513 1512 1516 1518 1520 1523 1529 1533 1534 1536 1539 1542 1545 1548 1550 1550 1551 1554 1555 1557 1558 1559 1560 1561 1562 1563 1564 1564 1565 1566 1567 1568 1568 1569 1570 1571 1572 1573 1574 1575 1575
1515 1506 1505 1511 1511 1508 1509 1512 1513 1514 1517 1520 1522 1525 1532 1534 1536 1538 1541 1544 1547 1550 1552 1551 1553 1555 1557 1558 1559 1560 1561 1562 1563 1564 1565 1566 1567 1568 1569 1569 1570 1571 1572 1572 1573 1575 1575 1576 1577
1514 1504 1508 1509 1511 1510 1511 1513 1512 1514 1516 1520 1523 1525 1533 1536 1538 1540 1543 1546 1549 1551 1553 1554 1555 1556 1558 1559 1561 1562 1563 1564 1565 1566 1567 1567 1568 1569 1570 1571 1572 1572 1573 1574 1575 1576 1577 1578 1579
1515 1506 1506 1508 1511 1511 1511 1513 1515 1515 1518 1523 1524 1525 1531 1535 1537 1540 1543 1547 1549 1552 1554 1556 1558 1559 1561 1561 1562 1563 1564 1565 1566 1567 1568 1569 1570 1571 1572 1573 1573 1574 1575 1576 1577 1578 1579 1580 1581
1516 1507 1511 1511 1513 1511 1512 1513 1516 1518 1520 1523 1525 1526 1529 1533 1537 1540 1544 1547 1549 1552 1555 1557 1559 1561 1563 1564 1563 1564 1565 1566 1568 1569 1569 1571 1573 1573 1574 1574 1575 1576 1577 1578 1579 1580 1581 1582 1583
1513 1508 1512 1512 1512 1511 1512 1513 1515 1517 1518 1522 1525 1528 1529 1532 1536 1539 1542 1545 1548 1551 1554 1557 1560 1561 1564 1565 1565 1566 1568 1568 1569 1570 1571 1573 1573 1575 1576 1575 1576 1578 1579 1580 1581 1582 1583 1584 1585
1514 1511 1512 1512 1513 1513 1512 1513 1514 1514 1514 1518 1523 1527 1529 1532 1536 1539 1542 1545 1548 1551 1554 1556 1559 1561 1563 1564 1565 1567 1569 1569 1570 1571 1572 1573 1575 1576 1577 1578 1578 1579 1581 1582 1582 1584 1586 1587 1587
1515 1514 1515 1513 1514 1513 1512 1512 1513 1513 1515 1519 1521 1525 1528 1532 1535 1538 1542 1545 1548 1550 1553 1556 1558 1560 1562 1564 1566 1567 1569 1570 1571 1571 1572 1574 1576 1577 1578 1579 1580 1581 1583 1583 1585 1585 1586 1587 1588
1515 1515 1514 1513 1512 1512 1512 1511 1512 1514 1517 1519 1522 1525 1528 1531 1535 1539 1541 1544 1546 1549 1551 1554 1556 1558 1560 1562 1564 1567 1568 1570 1571 1571 1573 1574 1576 1578 1578 1579 1580 1583 1583 1584 1585 1586 1586 1587 1588
1517 1515 1513 1512 1511 1512 1511 1510 1512 1514 1518 1520 1522 1525 1528 1531 1534 1537 1540 1542 1545 1547 1549 1552 1554 1557 1559 1561 1563 1565 1568 1568 1571 1572 1573 1574 1576 1578 1579 1579 1581 1583 1584 1585 1586 1587 1587 1588 1589
1518 1514 1510 1510 1511 1511 1510 1508 1510 1514 1517 1520 1522 1525 1528 1531 1534 1536 1538 1540 1543 1545 1547 1550 1552 1556 1558 1560 1562 1564 1566 1568 1570 1572 1572 1574 1576 1577 1579 1580 1581 1583 1584 1584 1585 1586 1587 1588 1589
1513 1512 1512 1509 1510 1510 1511 1510 1510 1514 1516 1519 1522 1525 1527 1530 1533 1535 1537 1539 1541 1543 1546 1548 1552 1554 1556 1559 1561 1563 1565 1567 1569 1571 1572 1573 1575 1576 1578 1580 1582 1582 1583 1585 1585 1587 1587 1588 1589
1511 1513 1512 1510 1510 1509 1508 1508 1509 1513 1515 1517 1520 1523 1526 1529 1532 1534 1536 1538 1540 1542 1544 1547 1550 1552 1554 1557 1559 1561 1563 1565 1567 1569 1571 1572 1574 1576 1577 1579 1580 1581 1583 1584 1585 1586 1587 1588 1588
1515 1513 1514 1513 1509 1508 1507 1506 1507 1512 1513 1515 1519 1522 1524 1527 1530 1532 1534 1536 1538 1540 1542 1545 1547 1550 1552 1555 1556 1559 1561 1563 1565 1567 1569 1571 1573 1575 1577 1578 1579 1581 1582 1583 1584 1585 1585 1586 1587
1513 1514 1514 1512 1509 1509 1506 1506 1505 1509 1511 1513 1517 1520 1522 1526 1528 1530 1532 1534 1536 1538 1540 1542 1544 1547 1550 1552 1554 1556 1559 1561 1563 1565 1567 1569 1571 1573 1575 1577 1578 1579 1580 1581 1583 1583 1584 1585 1586
1515 1515 1513 1510 1509 1509 1506 1505 1504 1507 1509 1511 1514 1517 1520 1524 1526 1528 1530 1532 1534 1535 1538 1540 1542 1544 1547 1550 1552 1554 1557 1559 1561 1563 1565 1567 1569 1571 1573 1574 1576 1578 1578 1579 1580 1581 1583 1584 1585
1514 1514 1512 1513 1509 1507 1507 1506 1502 1504 1507 1510 1512 1515 1518 1521 1523 1525 1528 1530 1531 1533 1535 1537 1539 1542 1545 1547 1550 1552 1554 1556 1558 1560 1562 1564 1566 1568 1570 1572 1573 1575 1576 1577 1578 1579 1580 1582 1583
1515 1509 1512 1512 1513 1508 1511 1513 1502 1500 1503 1506 1509 1512 1515 1518 1521 1523 1525 1528 1529 1531 1533 1535 1537 1539 1542 1544 1547 1549 1551 1553 1555 1557 1560 1561 1564 1565 1567 1568 1570 1571 1573 1574 1575 1577 1578 1579 1580
1509 1510 1511 1511 1511 1512 1508 1514 1502 1498 1500 1501 1506 1509 1512 1516 1519 1521 1523 1526 1528 1530 1532 1533 1535 1537 1539 1542 1544 1546 1549 1551 1553 1555 1556 1558 1560 1562 1563 1565 1566 1568 1569 1571 1572 1573 1575 1576 1577
1510 1512 1512 1510 1507 1521 1512 1517 1509 1495 1498 1499 1503 1508 1511 1514 1517 1520 1522 1524 1527 1529 1530 1531 1533 1535 1537 1539 1541 1543 1546 1548 1550 1552 1554 1555 1557 1558 1560 1561 1563 1564 1566 1567 1568 1570 1571 1572 1573
1510 1514 1521 1523 1520 1517 1509 1514 1506 1495 1497 1500 1502 1506 1509 1512 1516 1518 1521 1523 1525 1527 1528 1530 1531 1533 1535 1537 1539 1541 1543 1545 1547 1549 1551 1552 1554 1555 1556 1558 1559 1560 1562 1563 1564 1566 1567 1568 1569
1506 1505 1519 1527 1521 1511 1512 1511 1497 1495 1498 1501 1503 1505 1508 1511 1514 1517 1520 1522 1524 1526 1527 1528 1530 1531 1533 1535 1537 1539 1541 1543 1545 1546 1548 1549 1551 1552 1553 1554 1555 1557 1558 1560 1561 1562 1563 1565 1565
1504 1504 1495 1506 1511 1516 1507 1502 1493 1493 1496 1499 1501 1505 1508 1511 1513 1516 1519 1521 1523 1525 1526 1528 1529 1530 1532 1533 1535 1537 1539 1540 1542 1544 1545 1546 1547 1549 1550 1551 1552 1553 1554 1555 1557 1558 1559 1561 1562
1497 1495 1502 1508 1522 1523 1512 1506 1499 1492 1492 1496 1499 1503 1506 1510 1513 1516 1518 1520 1523 1524 1526 1527 1528 1529 1530 1532 1533 1535 1536 1538 1539 1541 1542 1543 1544 1545 1546 1548 1549 1550 1551 1552 1553 1554 1556 1557 1558
1502 1502 1500 1500 1502 1515 1516 1505 1485 1488 1490 1493 1497 1502 1505 1509 1512 1515 1517 1520 1522 1523 1525 1526 1527 1528 1529 1530 1532 1533 1534 1536 1537 1538 1540 1541 1542 1543 1544 1545 1546 1547 1548 1549 1550 1551 1553 1554 1555
1489 1491 1497 1507 1510 1507 1507 1500 1483 1487 1490 1493 1496 1501 1504 1508 1511 1514 1516 1519 1521 1523 1524 1525 1527 1527 1528 1529 1530 1532 1533 1534 1535 1537 1538 1539 1540 1540 1541 1542 1543 1544 1545 1546 1547 1548 1549 1550 1551